| time (UTC) | temp F | wind direction | speed MPH | gust MPH | rain 1hr in | rain 24hr in | rain mn in | humidity % | barometer mb |
| 20260906100056 | 64 | 51 | 3.0 | 6.0 | 0.00 | 0.01 | 0.00 | 94 | 1017.9 |
| 20260906094556 | 63 | 66 | 3.0 | 5.0 | 0.00 | 0.01 | 0.00 | 93 | 1017.9 |
| 20260906093116 | 63 | 53 | 2.0 | 5.0 | 0.00 | 0.01 | 0.00 | 93 | 1017.9 |
| 20260906091604 | 63 | 66 | 2.0 | 3.0 | 0.00 | 0.01 | 0.00 | 93 | 1017.9 |
| 20260906090119 | 63 | 67 | 0.0 | 3.0 | 0.00 | 0.01 | 0.00 | 92 | 1018.0 |
| 20260906084559 | 64 | 67 | 1.0 | 4.0 | 0.00 | 0.01 | 0.00 | 92 | 1017.8 |
| 20260906083056 | 64 | 63 | 2.0 | 5.0 | 0.00 | 0.01 | 0.00 | 92 | 1017.9 |
| 20260906081601 | 65 | 67 | 2.0 | 5.0 | 0.00 | 0.01 | 0.00 | 92 | 1017.9 |
| 20260906080100 | 65 | 71 | 3.0 | 7.0 | 0.00 | 0.01 | 0.00 | 92 | 1017.9 |
| 20260906074555 | 65 | 46 | 3.0 | 6.0 | 0.00 | 0.01 | 0.00 | 92 | 1018.0 |
| 20260906073100 | 65 | 49 | 2.0 | 5.0 | 0.00 | 0.01 | 0.00 | 93 | 1018.0 |
| 20260906071610 | 65 | 44 | 2.0 | 5.0 | 0.00 | 0.01 | 0.00 | 93 | 1018.2 |
| 20260906070100 | 65 | 51 | 3.0 | 5.0 | 0.00 | 0.01 | 0.00 | 93 | 1018.1 |
| 20260906064601 | 65 | 52 | 2.0 | 4.0 | 0.00 | 0.01 | 0.00 | 93 | 1018.2 |
| 20260906063056 | 65 | 52 | 0.0 | 3.0 | 0.00 | 0.01 | 0.00 | 92 | 1018.5 |
| 20260906061555 | 65 | 52 | 0.0 | 3.0 | 0.00 | 0.01 | 0.00 | 92 | 1018.4 |
| 20260906060104 | 66 | 52 | 1.0 | 3.0 | 0.00 | 0.01 | 0.00 | 92 | 1018.4 |
| 20260906054600 | 67 | 52 | 1.0 | 3.0 | 0.00 | 0.01 | 0.00 | 92 | 1018.3 |
| 20260906053056 | 67 | 52 | 1.0 | 4.0 | 0.00 | 0.01 | 0.00 | 91 | 1018.3 |
| 20260906051556 | 68 | 53 | 2.0 | 5.0 | 0.00 | 0.01 | 0.00 | 90 | 1018.1 |
| 20260906050131 | 68 | 53 | 3.0 | 7.0 | 0.00 | 0.01 | 0.00 | 89 | 1017.9 |
| 20260906044605 | 69 | 53 | 3.0 | 8.0 | 0.00 | 0.01 | 0.01 | 88 | 1017.8 |
| 20260906043110 | 69 | 71 | 5.0 | 11.0 | 0.00 | 0.01 | 0.01 | 87 | 1017.6 |
| 20260906041602 | 70 | 74 | 7.0 | 11.0 | 0.00 | 0.01 | 0.01 | 87 | 1017.4 |
| 20260906040101 | 70 | 59 | 4.0 | 12.0 | 0.00 | 0.01 | 0.01 | 87 | 1017.2 |
| 20260906034600 | 71 | 68 | 5.0 | 10.0 | 0.00 | 0.01 | 0.01 | 87 | 1017.0 |
| 20260906033056 | 71 | 65 | 6.0 | 14.0 | 0.00 | 0.01 | 0.01 | 87 | 1016.7 |
| 20260906031557 | 72 | 69 | 5.0 | 10.0 | 0.00 | 0.01 | 0.01 | 87 | 1016.6 |
| 20260906030114 | 72 | 80 | 4.0 | 12.0 | 0.00 | 0.01 | 0.01 | 87 | 1016.4 |
| 20260906024555 | 72 | 63 | 6.0 | 11.0 | 0.00 | 0.01 | 0.01 | 87 | 1016.2 |
| 20260906023116 | 72 | 58 | 4.0 | 9.0 | 0.00 | 0.01 | 0.01 | 86 | 1016.0 |
| 20260906021611 | 72 | 59 | 3.0 | 5.0 | 0.00 | 0.01 | 0.01 | 87 | 1016.0 |
| 20260906020104 | 72 | 54 | 3.0 | 8.0 | 0.00 | 0.01 | 0.01 | 86 | 1015.7 |
| 20260906014553 | 72 | 60 | 3.0 | 6.0 | 0.00 | 0.01 | 0.01 | 85 | 1015.5 |
| 20260906013057 | 73 | 59 | 3.0 | 7.0 | 0.00 | 0.01 | 0.01 | 85 | 1015.4 |
| 20260906011554 | 72 | 46 | 3.0 | 6.0 | 0.00 | 0.01 | 0.01 | 84 | 1015.3 |
| 20260906010059 | 73 | 53 | 3.0 | 8.0 | 0.00 | 0.01 | 0.01 | 84 | 1015.2 |
| 20260906004600 | 73 | 38 | 3.0 | 6.0 | 0.00 | 0.01 | 0.01 | 83 | 1015.4 |
| 20260906003107 | 73 | 37 | 3.0 | 5.0 | 0.00 | 0.01 | 0.01 | 82 | 1015.5 |
| 20260906001603 | 74 | 38 | 2.0 | 5.0 | 0.00 | 0.01 | 0.01 | 81 | 1015.5 |
| 20260906000107 | 75 | 44 | 3.0 | 7.0 | 0.00 | 0.01 | 0.01 | 80 | 1015.4 |
| 20260905234615 | 76 | 44 | 4.0 | 10.0 | 0.00 | 0.01 | 0.01 | 79 | 1015.5 |
| 20260905233059 | 76 | 38 | 5.0 | 11.0 | 0.00 | 0.01 | 0.01 | 78 | 1015.7 |
| 20260905231600 | 77 | 28 | 6.0 | 11.0 | 0.00 | 0.01 | 0.01 | 78 | 1015.7 |
| 20260905230058 | 78 | 34 | 3.0 | 11.0 | 0.00 | 0.01 | 0.01 | 77 | 1015.8 |
| 20260905224556 | 80 | 55 | 4.0 | 8.0 | 0.00 | 0.01 | 0.01 | 75 | 1015.8 |
| 20260905223057 | 80 | 12 | 2.0 | 7.0 | 0.00 | 0.01 | 0.01 | 78 | 1016.0 |
| 20260905221602 | 79 | 21 | 4.0 | 9.0 | 0.00 | 0.01 | 0.01 | 79 | 1015.8 |
| 20260905220059 | 79 | 5 | 2.0 | 9.0 | 0.00 | 0.01 | 0.01 | 76 | 1015.9 |
| 20260905214611 | 80 | 355 | 2.0 | 5.0 | 0.00 | 0.01 | 0.01 | 77 | 1015.8 |
| 20260905213114 | 78 | 51 | 5.0 | 10.0 | 0.00 | 0.01 | 0.01 | 78 | 1015.6 |
| 20260905211603 | 77 | 19 | 5.0 | 12.0 | 0.00 | 0.01 | 0.01 | 80 | 1015.5 |
| 20260905210106 | 77 | 34 | 5.0 | 11.0 | 0.00 | 0.01 | 0.01 | 81 | 1015.7 |
| 20260905204602 | 77 | 360 | 6.0 | 11.0 | 0.00 | 0.01 | 0.01 | 81 | 1016.0 |
| 20260905203058 | 77 | 48 | 6.0 | 13.0 | 0.00 | 0.01 | 0.01 | 81 | 1016.0 |
| 20260905201607 | 78 | 360 | 7.0 | 12.0 | 0.00 | 0.01 | 0.01 | 81 | 1015.9 |
| 20260905194602 | 78 | 53 | 7.0 | 10.0 | 0.00 | 0.01 | 0.01 | 81 | 1015.9 |
| 20260905193059 | 78 | 25 | 5.0 | 11.0 | 0.00 | 0.01 | 0.01 | 84 | 1016.2 |
| 20260905191600 | 78 | 55 | 4.0 | 10.0 | 0.00 | 0.01 | 0.01 | 81 | 1016.2 |
| 20260905190054 | 78 | 21 | 4.0 | 10.0 | 0.00 | 0.01 | 0.01 | 81 | 1015.9 |
| 20260905184611 | 78 | 355 | 5.0 | 10.0 | 0.00 | 0.01 | 0.01 | 85 | 1016.1 |
| 20260905183118 | 78 | 12 | 5.0 | 11.0 | 0.00 | 0.01 | 0.01 | 82 | 1015.9 |
| 20260905181601 | 78 | 34 | 7.0 | 12.0 | 0.00 | 0.01 | 0.01 | 82 | 1016.1 |
| 20260905180059 | 78 | 360 | 6.0 | 11.0 | 0.00 | 0.01 | 0.01 | 82 | 1016.1 |
| 20260905174629 | 78 | 42 | 7.0 | 12.0 | 0.00 | 0.01 | 0.01 | 83 | 1016.2 |
| 20260905173112 | 78 | 36 | 6.0 | 11.0 | 0.00 | 0.01 | 0.01 | 83 | 1016.3 |
| 20260905171602 | 77 | 355 | 5.0 | 10.0 | 0.00 | 0.01 | 0.01 | 84 | 1016.5 |
| 20260905170107 | 76 | 342 | 5.0 | 9.0 | 0.00 | 0.01 | 0.01 | 86 | 1016.3 |
| 20260905164604 | 76 | 28 | 6.0 | 10.0 | 0.00 | 0.01 | 0.01 | 87 | 1016.4 |
| 20260905163107 | 76 | 5 | 5.0 | 11.0 | 0.00 | 0.01 | 0.01 | 86 | 1016.3 |
| 20260905161559 | 76 | 40 | 6.0 | 11.0 | 0.00 | 0.01 | 0.01 | 86 | 1016.4 |
| 20260905160059 | 76 | 29 | 7.0 | 13.0 | 0.00 | 0.01 | 0.01 | 86 | 1016.3 |
| 20260905154604 | 75 | 37 | 5.0 | 10.0 | 0.00 | 0.02 | 0.01 | 89 | 1016.2 |
| 20260905153106 | 75 | 49 | 5.0 | 12.0 | 0.00 | 0.02 | 0.01 | 89 | 1016.2 |
| 20260905151601 | 74 | 44 | 6.0 | 13.0 | 0.00 | 0.02 | 0.01 | 90 | 1016.1 |
| 20260905150105 | 75 | 11 | 6.0 | 14.0 | 0.00 | 0.02 | 0.01 | 89 | 1015.9 |
| 20260905144608 | 75 | 31 | 5.0 | 12.0 | 0.00 | 0.02 | 0.01 | 89 | 1015.7 |
| 20260905143105 | 76 | 26 | 7.0 | 11.0 | 0.00 | 0.02 | 0.01 | 89 | 1015.3 |
| 20260905141612 | 76 | 59 | 6.0 | 11.0 | 0.00 | 0.02 | 0.01 | 90 | 1015.2 |
| 20260905140105 | 76 | 53 | 7.0 | 12.0 | 0.00 | 0.02 | 0.01 | 93 | 1014.7 |
| 20260905134610 | 75 | 23 | 5.0 | 9.0 | 0.00 | 0.02 | 0.01 | 94 | 1014.6 |
| 20260905133101 | 74 | 350 | 2.0 | 4.0 | 0.00 | 0.02 | 0.01 | 94 | 1014.5 |
| 20260905131606 | 74 | 350 | 0.0 | 3.0 | 0.00 | 0.02 | 0.01 | 94 | 1014.5 |
| 20260905130106 | 73 | 350 | 0.0 | 4.0 | 0.01 | 0.02 | 0.01 | 94 | 1014.5 |
| 20260905124604 | 73 | 350 | 1.0 | 4.0 | 0.01 | 0.02 | 0.01 | 94 | 1014.3 |
| 20260905123103 | 72 | 350 | 2.0 | 4.0 | 0.01 | 0.02 | 0.01 | 94 | 1014.2 |
| 20260905121602 | 72 | 350 | 0.0 | 3.0 | 0.01 | 0.02 | 0.01 | 94 | 1014.2 |
| 20260905120059 | 72 | 350 | 0.0 | 4.0 | 0.00 | 0.01 | 0.00 | 94 | 1014.1 |
| 20260905114636 | 72 | 348 | 2.0 | 6.0 | 0.00 | 0.01 | 0.00 | 94 | 1013.6 |
| 20260905113101 | 72 | 318 | 0.0 | 4.0 | 0.00 | 0.01 | 0.00 | 94 | 1013.5 |
| 20260905111559 | 71 | 360 | 3.0 | 8.0 | 0.00 | 0.01 | 0.00 | 94 | 1013.2 |
| 20260905110055 | 71 | 11 | 4.0 | 9.0 | 0.00 | 0.01 | 0.00 | 94 | 1013.2 |
| 20260905104555 | 70 | 16 | 3.0 | 9.0 | 0.00 | 0.01 | 0.00 | 94 | 1012.9 |
| 20260905103105 | 70 | 352 | 2.0 | 3.0 | 0.00 | 0.01 | 0.00 | 94 | 1012.8 |
| 20260905101602 | 71 | 355 | 1.0 | 3.0 | 0.00 | 0.01 | 0.00 | 94 | 1012.8 |